Year,Month,Day,Hour,Minute,Value (Times are PST for windspeed in km/hr)
2013,09,28,00,00,0.10
2013,09,28,00,01,0.10
2013,09,28,00,02,0.00
2013,09,28,00,03,0.00
2013,09,28,00,04,0.70
2013,09,28,00,05,1.80
2013,09,28,00,06,0.00
2013,09,28,00,07,0.20
2013,09,28,00,08,0.00
2013,09,28,00,09,0.00
2013,09,28,00,10,0.40
2013,09,28,00,11,1.30
2013,09,28,00,12,1.70
2013,09,28,00,13,1.00
2013,09,28,00,14,1.10
2013,09,28,00,15,1.80
2013,09,28,00,16,0.60
2013,09,28,00,17,2.20
2013,09,28,00,18,0.60
2013,09,28,00,19,1.70
2013,09,28,00,20,0.50
2013,09,28,00,21,0.10
2013,09,28,00,22,1.00
2013,09,28,00,23,0.00
2013,09,28,00,24,1.20
2013,09,28,00,25,0.00
2013,09,28,00,26,0.00
2013,09,28,00,27,0.70
2013,09,28,00,28,0.00
2013,09,28,00,29,0.00
2013,09,28,00,30,0.00
2013,09,28,00,31,0.10
2013,09,28,00,32,1.20
2013,09,28,00,33,0.60
2013,09,28,00,34,0.10
2013,09,28,00,35,0.00
2013,09,28,00,36,1.20
2013,09,28,00,37,0.00
2013,09,28,00,38,0.00
2013,09,28,00,39,0.00
2013,09,28,00,40,0.10
2013,09,28,00,41,0.10
2013,09,28,00,42,0.90
2013,09,28,00,43,0.00
2013,09,28,00,44,0.00
2013,09,28,00,45,0.00
2013,09,28,00,46,0.00
2013,09,28,00,47,0.00
2013,09,28,00,48,0.00
2013,09,28,00,49,0.00
2013,09,28,00,50,0.10
2013,09,28,00,51,0.10
2013,09,28,00,52,0.00
2013,09,28,00,53,0.00
2013,09,28,00,54,0.00
2013,09,28,00,55,0.00
2013,09,28,00,56,0.80
2013,09,28,00,57,0.00
2013,09,28,00,58,0.00
2013,09,28,00,59,0.00
2013,09,28,01,00,0.00
2013,09,28,01,01,0.20
2013,09,28,01,02,0.10
2013,09,28,01,03,0.40
2013,09,28,01,04,0.60
2013,09,28,01,05,0.80
2013,09,28,01,06,0.00
2013,09,28,01,07,0.10
2013,09,28,01,08,0.10
2013,09,28,01,09,0.00
2013,09,28,01,10,0.20
2013,09,28,01,11,1.50
2013,09,28,01,12,0.60
2013,09,28,01,13,0.20
2013,09,28,01,14,0.00
2013,09,28,01,15,0.10
2013,09,28,01,16,0.10
2013,09,28,01,17,0.00
2013,09,28,01,18,0.00
2013,09,28,01,19,0.10
2013,09,28,01,20,0.00
2013,09,28,01,21,0.00
2013,09,28,01,22,0.10
2013,09,28,01,23,0.80
2013,09,28,01,24,1.40
2013,09,28,01,25,0.30
2013,09,28,01,26,0.10
2013,09,28,01,27,0.00
2013,09,28,01,28,0.00
2013,09,28,01,29,0.00
2013,09,28,01,30,0.00
2013,09,28,01,31,0.00
2013,09,28,01,32,0.00
2013,09,28,01,33,0.00
2013,09,28,01,34,0.00
2013,09,28,01,35,0.00
2013,09,28,01,36,0.00
2013,09,28,01,37,0.00
2013,09,28,01,38,0.00
2013,09,28,01,39,0.00
2013,09,28,01,40,0.00
2013,09,28,01,41,0.10
2013,09,28,01,42,0.00
2013,09,28,01,43,0.00
2013,09,28,01,44,0.00
2013,09,28,01,45,0.00
2013,09,28,01,46,0.00
2013,09,28,01,47,0.00
2013,09,28,01,48,0.00
2013,09,28,01,49,0.00
2013,09,28,01,50,0.00
2013,09,28,01,51,0.00
2013,09,28,01,52,0.10
2013,09,28,01,53,0.00
2013,09,28,01,54,0.10
2013,09,28,01,55,0.00
2013,09,28,01,56,0.00
2013,09,28,01,57,0.00
2013,09,28,01,58,0.10
2013,09,28,01,59,0.00
2013,09,28,02,00,0.00
2013,09,28,02,01,0.00
2013,09,28,02,02,0.00
2013,09,28,02,03,0.00
2013,09,28,02,04,0.00
2013,09,28,02,05,0.30
2013,09,28,02,06,0.50
2013,09,28,02,07,0.00
2013,09,28,02,08,0.00
2013,09,28,02,09,0.20
2013,09,28,02,10,0.40
2013,09,28,02,11,0.00
2013,09,28,02,12,0.00
2013,09,28,02,13,0.00
2013,09,28,02,14,0.00
2013,09,28,02,15,0.00
2013,09,28,02,16,0.00
2013,09,28,02,17,0.00
2013,09,28,02,18,0.00
2013,09,28,02,19,0.00
2013,09,28,02,20,0.80
2013,09,28,02,21,1.10
2013,09,28,02,22,1.40
2013,09,28,02,23,0.10
2013,09,28,02,24,0.00
2013,09,28,02,25,0.00
2013,09,28,02,26,0.00
2013,09,28,02,27,0.00
2013,09,28,02,28,0.00
2013,09,28,02,29,0.10
2013,09,28,02,30,2.20
2013,09,28,02,31,0.70
2013,09,28,02,32,0.90
2013,09,28,02,33,0.00
2013,09,28,02,34,0.00
2013,09,28,02,35,0.00
2013,09,28,02,36,0.00
2013,09,28,02,37,0.00
2013,09,28,02,38,0.00
2013,09,28,02,39,0.00
2013,09,28,02,40,0.00
2013,09,28,02,41,0.00
2013,09,28,02,42,0.00
2013,09,28,02,43,0.00
2013,09,28,02,44,0.00
2013,09,28,02,45,0.00
2013,09,28,02,46,0.00
2013,09,28,02,47,0.00
2013,09,28,02,48,0.00
2013,09,28,02,49,0.40
2013,09,28,02,50,1.80
2013,09,28,02,51,1.80
2013,09,28,02,52,1.90
2013,09,28,02,53,1.40
2013,09,28,02,54,0.60
2013,09,28,02,55,0.40
2013,09,28,02,56,0.00
2013,09,28,02,57,0.10
2013,09,28,02,58,1.20
2013,09,28,02,59,1.50
2013,09,28,03,00,0.50
2013,09,28,03,01,0.70
2013,09,28,03,02,1.70
2013,09,28,03,03,0.80
2013,09,28,03,04,0.50
2013,09,28,03,05,1.10
2013,09,28,03,06,0.60
2013,09,28,03,07,0.90
2013,09,28,03,08,0.40
2013,09,28,03,09,1.90
2013,09,28,03,10,1.20
2013,09,28,03,11,0.50
2013,09,28,03,12,0.00
2013,09,28,03,13,1.80
2013,09,28,03,14,0.60
2013,09,28,03,15,0.20
2013,09,28,03,16,0.00
2013,09,28,03,17,1.30
2013,09,28,03,18,1.80
2013,09,28,03,19,2.70
2013,09,28,03,20,2.90
2013,09,28,03,21,2.40
2013,09,28,03,22,2.40
2013,09,28,03,23,3.60
2013,09,28,03,24,1.70
2013,09,28,03,25,0.90
2013,09,28,03,26,2.40
2013,09,28,03,27,2.30
2013,09,28,03,28,1.20
2013,09,28,03,29,2.30
2013,09,28,03,30,2.20
2013,09,28,03,31,2.20
2013,09,28,03,32,1.70
2013,09,28,03,33,1.50
2013,09,28,03,34,2.60
2013,09,28,03,35,2.40
2013,09,28,03,36,1.10
2013,09,28,03,37,3.40
2013,09,28,03,38,1.00
2013,09,28,03,39,2.10
2013,09,28,03,40,1.50
2013,09,28,03,41,0.70
2013,09,28,03,42,0.20
2013,09,28,03,43,2.50
2013,09,28,03,44,1.90
2013,09,28,03,45,0.70
2013,09,28,03,46,1.10
2013,09,28,03,47,3.60
2013,09,28,03,48,2.00
2013,09,28,03,49,0.80
2013,09,28,03,50,0.50
2013,09,28,03,51,4.80
2013,09,28,03,52,3.70
2013,09,28,03,53,0.40
2013,09,28,03,54,0.10
2013,09,28,03,55,2.00
2013,09,28,03,56,1.00
2013,09,28,03,57,1.00
2013,09,28,03,58,0.40
2013,09,28,03,59,1.80
2013,09,28,04,00,1.20
2013,09,28,04,01,0.80
2013,09,28,04,02,0.00
2013,09,28,04,03,0.70
2013,09,28,04,04,1.00
2013,09,28,04,05,0.10
2013,09,28,04,06,0.00
2013,09,28,04,07,0.00
2013,09,28,04,08,0.00
2013,09,28,04,09,0.00
2013,09,28,04,10,0.10
2013,09,28,04,11,0.10
2013,09,28,04,12,0.00
2013,09,28,04,13,0.00
2013,09,28,04,14,0.00
2013,09,28,04,15,0.00
2013,09,28,04,16,0.00
2013,09,28,04,17,0.00
2013,09,28,04,18,0.00
2013,09,28,04,19,0.00
2013,09,28,04,20,0.00
2013,09,28,04,21,0.00
2013,09,28,04,22,0.00
2013,09,28,04,23,0.00
2013,09,28,04,24,0.10
2013,09,28,04,25,0.00
2013,09,28,04,26,0.00
2013,09,28,04,27,0.00
2013,09,28,04,28,0.00
2013,09,28,04,29,0.00
2013,09,28,04,30,0.00
2013,09,28,04,31,0.00
2013,09,28,04,32,0.00
2013,09,28,04,33,0.00
2013,09,28,04,34,0.00
2013,09,28,04,35,1.10
2013,09,28,04,36,1.30
2013,09,28,04,37,0.70
2013,09,28,04,38,0.10
2013,09,28,04,39,0.10
2013,09,28,04,40,0.40
2013,09,28,04,41,0.00
2013,09,28,04,42,0.70
2013,09,28,04,43,1.10
2013,09,28,04,44,1.90
2013,09,28,04,45,1.50
2013,09,28,04,46,1.00
2013,09,28,04,47,0.30
2013,09,28,04,48,1.20
2013,09,28,04,49,0.60
2013,09,28,04,50,1.00
2013,09,28,04,51,1.20
2013,09,28,04,52,1.60
2013,09,28,04,53,0.70
2013,09,28,04,54,0.50
2013,09,28,04,55,0.40
2013,09,28,04,56,0.10
2013,09,28,04,57,0.40
2013,09,28,04,58,0.10
2013,09,28,04,59,0.10
2013,09,28,05,00,0.10
2013,09,28,05,01,0.30
2013,09,28,05,02,0.20
2013,09,28,05,03,1.00
2013,09,28,05,04,1.30
2013,09,28,05,05,1.00
2013,09,28,05,06,2.10
2013,09,28,05,07,1.30
2013,09,28,05,08,1.50
2013,09,28,05,09,2.00
2013,09,28,05,10,1.50
2013,09,28,05,11,2.00
2013,09,28,05,12,2.10
2013,09,28,05,13,1.80
2013,09,28,05,14,1.50
2013,09,28,05,15,0.50
2013,09,28,05,16,0.40
2013,09,28,05,17,0.20
2013,09,28,05,18,0.40
2013,09,28,05,19,1.00
2013,09,28,05,20,0.20
2013,09,28,05,21,0.00
2013,09,28,05,22,0.50
2013,09,28,05,23,1.70
2013,09,28,05,24,1.70
2013,09,28,05,25,1.70
2013,09,28,05,26,1.40
2013,09,28,05,27,2.00
2013,09,28,05,28,1.00
2013,09,28,05,29,1.00
2013,09,28,05,30,0.80
2013,09,28,05,31,0.40
2013,09,28,05,32,1.00
2013,09,28,05,33,0.50
2013,09,28,05,34,0.80
2013,09,28,05,35,1.10
2013,09,28,05,36,0.10
2013,09,28,05,37,2.10
2013,09,28,05,38,2.00
2013,09,28,05,39,3.30
2013,09,28,05,40,1.70
2013,09,28,05,41,3.10
2013,09,28,05,42,2.70
2013,09,28,05,43,3.40
2013,09,28,05,44,3.00
2013,09,28,05,45,3.60
2013,09,28,05,46,4.10
2013,09,28,05,47,3.40
2013,09,28,05,48,1.10
2013,09,28,05,49,4.50
2013,09,28,05,50,4.50
2013,09,28,05,51,2.80
2013,09,28,05,52,3.20
2013,09,28,05,53,2.40
2013,09,28,05,54,3.60
2013,09,28,05,55,1.70
2013,09,28,05,56,1.80
2013,09,28,05,57,4.90
2013,09,28,05,58,3.70
2013,09,28,05,59,1.80
2013,09,28,06,00,3.80
2013,09,28,06,01,2.10
2013,09,28,06,02,2.40
2013,09,28,06,03,3.40
2013,09,28,06,04,6.30
2013,09,28,06,05,7.90
2013,09,28,06,06,3.10
2013,09,28,06,07,3.50
2013,09,28,06,08,5.00
2013,09,28,06,09,4.60
2013,09,28,06,10,5.70
2013,09,28,06,11,2.40
2013,09,28,06,12,4.50
2013,09,28,06,13,7.00
2013,09,28,06,14,6.20
2013,09,28,06,15,5.20
2013,09,28,06,16,8.80
2013,09,28,06,17,7.40
2013,09,28,06,18,6.40
2013,09,28,06,19,7.00
2013,09,28,06,20,7.60
2013,09,28,06,21,2.30
2013,09,28,06,22,9.00
2013,09,28,06,23,9.70
2013,09,28,06,24,6.60
2013,09,28,06,25,5.50
2013,09,28,06,26,9.20
2013,09,28,06,27,7.70
2013,09,28,06,28,7.50
2013,09,28,06,29,8.80
2013,09,28,06,30,7.00
2013,09,28,06,31,6.50
2013,09,28,06,32,4.40
2013,09,28,06,33,4.30
2013,09,28,06,34,5.70
2013,09,28,06,35,8.90
2013,09,28,06,36,6.70
2013,09,28,06,37,8.10
2013,09,28,06,38,9.00
2013,09,28,06,39,4.70
2013,09,28,06,40,8.70
2013,09,28,06,41,6.60
2013,09,28,06,42,5.90
2013,09,28,06,43,5.00
2013,09,28,06,44,8.70
2013,09,28,06,45,6.40
2013,09,28,06,46,4.50
2013,09,28,06,47,7.00
2013,09,28,06,48,10.90
2013,09,28,06,49,4.80
2013,09,28,06,50,7.40
2013,09,28,06,51,6.40
2013,09,28,06,52,9.30
2013,09,28,06,53,4.80
2013,09,28,06,54,7.10
2013,09,28,06,55,4.00
2013,09,28,06,56,7.30
2013,09,28,06,57,5.80
2013,09,28,06,58,7.80
2013,09,28,06,59,5.20
2013,09,28,07,00,8.20
2013,09,28,07,01,8.30
2013,09,28,07,02,6.90
2013,09,28,07,03,5.70
2013,09,28,07,04,7.50
2013,09,28,07,05,11.10
2013,09,28,07,06,7.20
2013,09,28,07,07,10.70
2013,09,28,07,08,14.60
2013,09,28,07,09,9.50
2013,09,28,07,10,10.20
2013,09,28,07,11,10.40
2013,09,28,07,12,10.00
2013,09,28,07,13,5.40
2013,09,28,07,14,7.70
2013,09,28,07,15,10.90
2013,09,28,07,16,7.40
2013,09,28,07,17,6.90
2013,09,28,07,18,11.10
2013,09,28,07,19,6.80
2013,09,28,07,20,14.00
2013,09,28,07,21,9.40
2013,09,28,07,22,7.00
2013,09,28,07,23,5.50
2013,09,28,07,24,11.40
2013,09,28,07,25,12.30
2013,09,28,07,26,8.00
2013,09,28,07,27,9.80
2013,09,28,07,28,8.90
2013,09,28,07,29,8.20
2013,09,28,07,30,9.90
2013,09,28,07,31,10.40
2013,09,28,07,32,8.30
2013,09,28,07,33,15.40
2013,09,28,07,34,11.50
2013,09,28,07,35,9.70
2013,09,28,07,36,12.50
2013,09,28,07,37,7.50
2013,09,28,07,38,8.90
2013,09,28,07,39,7.60
2013,09,28,07,40,13.70
2013,09,28,07,41,14.00
2013,09,28,07,42,8.30
2013,09,28,07,43,14.60
2013,09,28,07,44,7.90
2013,09,28,07,45,12.00
2013,09,28,07,46,10.40
2013,09,28,07,47,13.20
2013,09,28,07,48,11.20
2013,09,28,07,49,10.60
2013,09,28,07,50,12.20
2013,09,28,07,51,12.80
2013,09,28,07,52,13.20
2013,09,28,07,53,8.50
2013,09,28,07,54,10.10
2013,09,28,07,55,15.40
2013,09,28,07,56,14.60
2013,09,28,07,57,9.70
2013,09,28,07,58,8.00
2013,09,28,07,59,7.80
2013,09,28,08,00,9.20
2013,09,28,08,01,7.20
2013,09,28,08,02,9.80
2013,09,28,08,03,11.30
2013,09,28,08,04,10.50
2013,09,28,08,05,10.10
2013,09,28,08,06,11.60
2013,09,28,08,07,7.30
2013,09,28,08,08,11.50
2013,09,28,08,09,8.80
2013,09,28,08,10,8.90
2013,09,28,08,11,8.30
2013,09,28,08,12,7.80
2013,09,28,08,13,8.20
2013,09,28,08,14,10.50
2013,09,28,08,15,9.50
2013,09,28,08,16,6.90
2013,09,28,08,17,4.80
2013,09,28,08,18,6.70
2013,09,28,08,19,6.20
2013,09,28,08,20,9.00
2013,09,28,08,21,12.50
2013,09,28,08,22,9.00
2013,09,28,08,23,7.80
2013,09,28,08,24,8.00
2013,09,28,08,25,4.50
2013,09,28,08,26,6.70
2013,09,28,08,27,8.30
2013,09,28,08,28,4.80
2013,09,28,08,29,8.30
2013,09,28,08,30,8.40
2013,09,28,08,31,10.50
2013,09,28,08,32,8.80
2013,09,28,08,33,10.40
2013,09,28,08,34,9.70
2013,09,28,08,35,9.30
2013,09,28,08,36,7.10
2013,09,28,08,37,6.40
2013,09,28,08,38,4.60
2013,09,28,08,39,5.40
2013,09,28,08,40,9.00
2013,09,28,08,41,6.30
2013,09,28,08,42,6.40
2013,09,28,08,43,6.80
2013,09,28,08,44,4.80
2013,09,28,08,45,7.60
2013,09,28,08,46,8.70
2013,09,28,08,47,7.80
2013,09,28,08,48,9.70
2013,09,28,08,49,4.30
2013,09,28,08,50,5.70
2013,09,28,08,51,10.60
2013,09,28,08,52,6.00
2013,09,28,08,53,8.50
2013,09,28,08,54,7.90
2013,09,28,08,55,6.60
2013,09,28,08,56,8.00
2013,09,28,08,57,3.20
2013,09,28,08,58,6.60
2013,09,28,08,59,6.20
2013,09,28,09,00,7.20
2013,09,28,09,01,9.30
2013,09,28,09,02,8.20
2013,09,28,09,03,8.30
2013,09,28,09,04,7.90
2013,09,28,09,05,5.10
2013,09,28,09,06,6.00
2013,09,28,09,07,2.40
2013,09,28,09,08,2.80
2013,09,28,09,09,2.40
2013,09,28,09,10,1.70
2013,09,28,09,11,2.80
2013,09,28,09,12,4.70
2013,09,28,09,13,3.40
2013,09,28,09,14,2.70
2013,09,28,09,15,4.30
2013,09,28,09,16,2.80
2013,09,28,09,17,1.60
2013,09,28,09,18,3.40
2013,09,28,09,19,7.40
2013,09,28,09,20,5.80
2013,09,28,09,21,6.10
2013,09,28,09,22,10.80
2013,09,28,09,23,4.50
2013,09,28,09,24,2.30
2013,09,28,09,25,2.50
2013,09,28,09,26,1.30
2013,09,28,09,27,4.60
2013,09,28,09,28,5.20
2013,09,28,09,29,6.70
2013,09,28,09,30,4.30
2013,09,28,09,31,6.00
2013,09,28,09,32,5.20
2013,09,28,09,33,5.00
2013,09,28,09,34,3.70
2013,09,28,09,35,2.80
2013,09,28,09,36,5.50
2013,09,28,09,37,5.00
2013,09,28,09,38,4.50
2013,09,28,09,39,6.30
2013,09,28,09,40,6.40
2013,09,28,09,41,5.20
2013,09,28,09,42,4.80
2013,09,28,09,43,5.00
2013,09,28,09,44,4.30
2013,09,28,09,45,5.50
2013,09,28,09,46,4.10
2013,09,28,09,47,3.70
2013,09,28,09,48,3.70
2013,09,28,09,49,4.50
2013,09,28,09,50,6.40
2013,09,28,09,51,4.80
2013,09,28,09,52,5.00
2013,09,28,09,53,4.30
2013,09,28,09,54,3.80
2013,09,28,09,55,3.00
2013,09,28,09,56,5.70
2013,09,28,09,57,4.50
2013,09,28,09,58,5.10
2013,09,28,09,59,5.70
2013,09,28,10,00,4.90
2013,09,28,10,01,3.80
2013,09,28,10,02,5.20
2013,09,28,10,03,4.70
2013,09,28,10,04,5.90
2013,09,28,10,05,4.50
2013,09,28,10,06,5.00
2013,09,28,10,07,3.70
2013,09,28,10,08,3.70
2013,09,28,10,09,4.40
2013,09,28,10,10,3.10
2013,09,28,10,11,3.20
2013,09,28,10,12,5.20
2013,09,28,10,13,5.20
2013,09,28,10,14,5.00
2013,09,28,10,15,4.00
2013,09,28,10,16,5.00
2013,09,28,10,17,5.40
2013,09,28,10,18,5.40
2013,09,28,10,19,4.50
2013,09,28,10,20,7.10
2013,09,28,10,21,4.80
2013,09,28,10,22,5.70
2013,09,28,10,23,3.90
2013,09,28,10,24,3.70
2013,09,28,10,25,5.20
2013,09,28,10,26,4.50
2013,09,28,10,27,5.60
2013,09,28,10,28,5.40
2013,09,28,10,29,2.50
2013,09,28,10,30,5.70
2013,09,28,10,31,3.30
2013,09,28,10,32,3.90
2013,09,28,10,33,3.80
2013,09,28,10,34,4.20
2013,09,28,10,35,4.10
2013,09,28,10,36,5.00
2013,09,28,10,37,3.60
2013,09,28,10,38,3.10
2013,09,28,10,39,3.00
2013,09,28,10,40,2.60
2013,09,28,10,41,2.80
2013,09,28,10,42,3.80
2013,09,28,10,43,3.60
2013,09,28,10,44,2.10
2013,09,28,10,45,2.10
2013,09,28,10,46,1.70
2013,09,28,10,47,4.00
2013,09,28,10,48,2.90
2013,09,28,10,49,3.10
2013,09,28,10,50,4.70
2013,09,28,10,51,4.10
2013,09,28,10,52,4.10
2013,09,28,10,53,3.50
2013,09,28,10,54,4.20
2013,09,28,10,55,3.40
2013,09,28,10,56,3.70
2013,09,28,10,57,3.70
2013,09,28,10,58,4.20
2013,09,28,10,59,4.20
2013,09,28,11,00,3.40
2013,09,28,11,01,4.90
2013,09,28,11,02,4.80
2013,09,28,11,03,5.60
2013,09,28,11,04,5.30
2013,09,28,11,05,5.50
2013,09,28,11,06,5.00
2013,09,28,11,07,4.70
2013,09,28,11,08,3.80
2013,09,28,11,09,3.00
2013,09,28,11,10,3.80
2013,09,28,11,11,4.30
2013,09,28,11,12,3.90
2013,09,28,11,13,3.10
2013,09,28,11,14,3.60
2013,09,28,11,15,3.80
2013,09,28,11,16,4.50
2013,09,28,11,17,4.20
2013,09,28,11,18,2.10
2013,09,28,11,19,3.60
2013,09,28,11,20,2.10
2013,09,28,11,21,3.10
2013,09,28,11,22,2.20
2013,09,28,11,23,1.10
2013,09,28,11,24,1.00
2013,09,28,11,25,2.80
2013,09,28,11,26,1.80
2013,09,28,11,27,5.30
2013,09,28,11,28,3.50
2013,09,28,11,29,5.10
2013,09,28,11,30,3.50
2013,09,28,11,31,2.90
2013,09,28,11,32,3.10
2013,09,28,11,33,3.70
2013,09,28,11,34,5.00
2013,09,28,11,35,7.10
2013,09,28,11,36,4.30
2013,09,28,11,37,4.00
2013,09,28,11,38,3.50
2013,09,28,11,39,2.90
2013,09,28,11,40,2.80
2013,09,28,11,41,4.80
2013,09,28,11,42,4.40
2013,09,28,11,43,3.40
2013,09,28,11,44,5.20
2013,09,28,11,45,3.10
2013,09,28,11,46,5.40
2013,09,28,11,47,3.30
2013,09,28,11,48,3.10
2013,09,28,11,49,2.50
2013,09,28,11,50,4.30
2013,09,28,11,51,5.20
2013,09,28,11,52,4.30
2013,09,28,11,53,1.50
2013,09,28,11,54,3.20
2013,09,28,11,55,6.20
2013,09,28,11,56,6.90
2013,09,28,11,57,5.00
2013,09,28,11,58,3.90
2013,09,28,11,59,4.90
2013,09,28,12,00,3.90
2013,09,28,12,01,4.20
2013,09,28,12,02,4.30
2013,09,28,12,03,4.80
2013,09,28,12,04,2.10
2013,09,28,12,05,1.80
2013,09,28,12,06,5.40
2013,09,28,12,07,3.40
2013,09,28,12,08,1.10
2013,09,28,12,09,1.30
2013,09,28,12,10,2.50
2013,09,28,12,11,3.60
2013,09,28,12,12,1.40
2013,09,28,12,13,1.10
2013,09,28,12,14,3.30
2013,09,28,12,15,3.50
2013,09,28,12,16,0.90
2013,09,28,12,17,1.00
2013,09,28,12,18,3.80
2013,09,28,12,19,4.00
2013,09,28,12,20,4.90
2013,09,28,12,21,4.10
2013,09,28,12,22,3.20
2013,09,28,12,23,2.90
2013,09,28,12,24,2.40
2013,09,28,12,25,3.10
2013,09,28,12,26,4.20
2013,09,28,12,27,2.80
2013,09,28,12,28,3.00
2013,09,28,12,29,3.60
2013,09,28,12,30,1.10
2013,09,28,12,31,2.30
2013,09,28,12,32,0.70
2013,09,28,12,33,2.50
2013,09,28,12,34,1.40
2013,09,28,12,35,2.30
2013,09,28,12,36,1.30
2013,09,28,12,37,4.50
2013,09,28,12,38,3.10
2013,09,28,12,39,4.10
2013,09,28,12,40,2.80
2013,09,28,12,41,4.10
2013,09,28,12,42,3.50
2013,09,28,12,43,1.40
2013,09,28,12,44,1.90
2013,09,28,12,45,2.70
2013,09,28,12,46,0.90
2013,09,28,12,47,0.60
2013,09,28,12,48,0.10
2013,09,28,12,49,1.50
2013,09,28,12,50,0.90
2013,09,28,12,51,1.20
2013,09,28,12,52,0.00
2013,09,28,12,53,0.00
2013,09,28,12,54,0.00
2013,09,28,12,55,1.40
2013,09,28,12,56,1.10
2013,09,28,12,57,0.10
2013,09,28,12,58,0.10
2013,09,28,12,59,0.10
2013,09,28,13,00,0.00
2013,09,28,13,01,0.00
2013,09,28,13,02,0.40
2013,09,28,13,03,0.80
2013,09,28,13,04,0.10
2013,09,28,13,05,0.90
2013,09,28,13,06,2.10
2013,09,28,13,07,1.10
2013,09,28,13,08,0.00
2013,09,28,13,09,1.50
2013,09,28,13,10,5.20
2013,09,28,13,11,4.80
2013,09,28,13,12,4.50
2013,09,28,13,13,6.60
2013,09,28,13,14,9.40
2013,09,28,13,15,12.60
2013,09,28,13,16,15.20
2013,09,28,13,17,11.80
2013,09,28,13,18,18.80
2013,09,28,13,19,13.50
2013,09,28,13,20,7.20
2013,09,28,13,21,7.00
2013,09,28,13,22,5.70
2013,09,28,13,23,0.70
2013,09,28,13,24,2.70
2013,09,28,13,25,4.00
2013,09,28,13,26,4.30
2013,09,28,13,27,4.20
2013,09,28,13,28,6.70
2013,09,28,13,29,7.60
2013,09,28,13,30,8.50
2013,09,28,13,31,12.40
2013,09,28,13,32,7.20
2013,09,28,13,33,8.10
2013,09,28,13,34,6.30
2013,09,28,13,35,6.90
2013,09,28,13,36,7.40
2013,09,28,13,37,5.50
2013,09,28,13,38,6.50
2013,09,28,13,39,6.90
2013,09,28,13,40,7.80
2013,09,28,13,41,7.70
2013,09,28,13,42,5.00
2013,09,28,13,43,1.60
2013,09,28,13,44,4.10
2013,09,28,13,45,11.60
2013,09,28,13,46,13.30
2013,09,28,13,47,7.70
2013,09,28,13,48,5.00
2013,09,28,13,49,4.80
2013,09,28,13,50,4.50
2013,09,28,13,51,4.40
2013,09,28,13,52,5.10
2013,09,28,13,53,5.50
2013,09,28,13,54,5.60
2013,09,28,13,55,6.00
2013,09,28,13,56,2.00
2013,09,28,13,57,5.20
2013,09,28,13,58,6.40
2013,09,28,13,59,2.40
2013,09,28,14,00,2.50
2013,09,28,14,01,2.40
2013,09,28,14,02,3.60
2013,09,28,14,03,2.10
2013,09,28,14,04,3.30
2013,09,28,14,05,4.00
2013,09,28,14,06,1.80
2013,09,28,14,07,2.80
2013,09,28,14,08,3.00
2013,09,28,14,09,0.60
2013,09,28,14,10,2.00
2013,09,28,14,11,0.80
2013,09,28,14,12,1.50
2013,09,28,14,13,2.60
2013,09,28,14,14,2.90
2013,09,28,14,15,2.60
2013,09,28,14,16,2.00
2013,09,28,14,17,2.10
2013,09,28,14,18,3.50
2013,09,28,14,19,5.00
2013,09,28,14,20,3.90
2013,09,28,14,21,3.60
2013,09,28,14,22,3.60
2013,09,28,14,23,4.30
2013,09,28,14,24,3.80
2013,09,28,14,25,3.10
2013,09,28,14,26,0.20
2013,09,28,14,27,4.20
2013,09,28,14,28,3.40
2013,09,28,14,29,3.70
2013,09,28,14,30,3.00
2013,09,28,14,31,4.30
2013,09,28,14,32,5.80
2013,09,28,14,33,5.60
2013,09,28,14,34,4.50
2013,09,28,14,35,3.90
2013,09,28,14,36,8.10
2013,09,28,14,37,6.30
2013,09,28,14,38,5.50
2013,09,28,14,39,5.00
2013,09,28,14,40,4.40
2013,09,28,14,41,4.70
2013,09,28,14,42,2.50
2013,09,28,14,43,4.00
2013,09,28,14,44,4.20
2013,09,28,14,45,6.00
2013,09,28,14,46,5.00
2013,09,28,14,47,4.30
2013,09,28,14,48,4.80
2013,09,28,14,49,4.60
2013,09,28,14,50,3.90
2013,09,28,14,51,4.80
2013,09,28,14,52,6.60
2013,09,28,14,53,4.60
2013,09,28,14,54,5.90
2013,09,28,14,55,5.00
2013,09,28,14,56,4.10
2013,09,28,14,57,5.50
2013,09,28,14,58,6.70
2013,09,28,14,59,3.50
2013,09,28,15,00,3.70
2013,09,28,15,01,2.70
2013,09,28,15,02,3.40
2013,09,28,15,03,2.90
2013,09,28,15,04,3.50
2013,09,28,15,05,4.60
2013,09,28,15,06,4.20
2013,09,28,15,07,4.80
2013,09,28,15,08,3.40
2013,09,28,15,09,1.80
2013,09,28,15,10,2.20
2013,09,28,15,11,3.30
2013,09,28,15,12,1.20
2013,09,28,15,13,1.80
2013,09,28,15,14,3.30
2013,09,28,15,15,3.40
2013,09,28,15,16,6.80
2013,09,28,15,17,4.10
2013,09,28,15,18,3.00
2013,09,28,15,19,1.10
2013,09,28,15,20,2.70
2013,09,28,15,21,4.70
2013,09,28,15,22,5.70
2013,09,28,15,23,4.40
2013,09,28,15,24,4.80
2013,09,28,15,25,3.60
2013,09,28,15,26,3.60
2013,09,28,15,27,5.40
2013,09,28,15,28,5.30
2013,09,28,15,29,3.70
2013,09,28,15,30,3.60
2013,09,28,15,31,3.90
2013,09,28,15,32,1.30
2013,09,28,15,33,0.10
2013,09,28,15,34,1.80
2013,09,28,15,35,0.10
2013,09,28,15,36,0.10
2013,09,28,15,37,0.00
2013,09,28,15,38,0.00
2013,09,28,15,39,1.50
2013,09,28,15,40,5.00
2013,09,28,15,41,4.60
2013,09,28,15,42,2.00
2013,09,28,15,43,3.50
2013,09,28,15,44,3.60
2013,09,28,15,45,4.30
2013,09,28,15,46,5.80
2013,09,28,15,47,6.90
2013,09,28,15,48,5.40
2013,09,28,15,49,6.20
2013,09,28,15,50,5.60
2013,09,28,15,51,4.80
2013,09,28,15,52,6.60
2013,09,28,15,53,6.20
2013,09,28,15,54,7.00
2013,09,28,15,55,4.50
2013,09,28,15,56,4.50
2013,09,28,15,57,6.00
2013,09,28,15,58,4.50
2013,09,28,15,59,3.90
2013,09,28,16,00,3.30
2013,09,28,16,01,6.10
2013,09,28,16,02,6.10
2013,09,28,16,03,5.70
2013,09,28,16,04,5.70
2013,09,28,16,05,11.30
2013,09,28,16,06,7.60
2013,09,28,16,07,11.70
2013,09,28,16,08,16.20
2013,09,28,16,09,13.60
2013,09,28,16,10,12.70
2013,09,28,16,11,19.60
2013,09,28,16,12,15.20
2013,09,28,16,13,16.70
2013,09,28,16,14,10.50
2013,09,28,16,15,11.50
2013,09,28,16,16,12.70
2013,09,28,16,17,10.50
2013,09,28,16,18,11.30
2013,09,28,16,19,6.80
2013,09,28,16,20,10.20
2013,09,28,16,21,7.80
2013,09,28,16,22,13.60
2013,09,28,16,23,11.70
2013,09,28,16,24,15.80
2013,09,28,16,25,11.00
2013,09,28,16,26,13.90
2013,09,28,16,27,10.10
2013,09,28,16,28,8.10
2013,09,28,16,29,10.00
2013,09,28,16,30,10.20
2013,09,28,16,31,9.10
2013,09,28,16,32,13.60
2013,09,28,16,33,8.90
2013,09,28,16,34,14.60
2013,09,28,16,35,14.70
2013,09,28,16,36,8.40
2013,09,28,16,37,12.10
2013,09,28,16,38,14.10
2013,09,28,16,39,7.30
2013,09,28,16,40,5.00
2013,09,28,16,41,12.20
2013,09,28,16,42,11.70
2013,09,28,16,43,7.70
2013,09,28,16,44,10.40
2013,09,28,16,45,10.80
2013,09,28,16,46,16.80
2013,09,28,16,47,16.40
2013,09,28,16,48,17.20
2013,09,28,16,49,14.60
2013,09,28,16,50,14.20
2013,09,28,16,51,11.30
2013,09,28,16,52,12.70
2013,09,28,16,53,16.20
2013,09,28,16,54,9.20
2013,09,28,16,55,11.00
2013,09,28,16,56,14.90
2013,09,28,16,57,8.20
2013,09,28,16,58,14.80
2013,09,28,16,59,13.10
2013,09,28,17,00,16.80
2013,09,28,17,01,7.50
2013,09,28,17,02,12.80
2013,09,28,17,03,15.80
2013,09,28,17,04,17.60
2013,09,28,17,05,16.20
2013,09,28,17,06,17.50
2013,09,28,17,07,17.60
2013,09,28,17,08,14.10
2013,09,28,17,09,16.40
2013,09,28,17,10,16.00
2013,09,28,17,11,16.50
2013,09,28,17,12,9.60
2013,09,28,17,13,11.10
2013,09,28,17,14,13.00
2013,09,28,17,15,16.60
2013,09,28,17,16,10.80
2013,09,28,17,17,11.10
2013,09,28,17,18,9.40
2013,09,28,17,19,13.20
2013,09,28,17,20,6.80
2013,09,28,17,21,8.70
2013,09,28,17,22,9.30
2013,09,28,17,23,10.60
2013,09,28,17,24,10.70
2013,09,28,17,25,13.60
2013,09,28,17,26,7.30
2013,09,28,17,27,9.90
2013,09,28,17,28,5.70
2013,09,28,17,29,7.40
2013,09,28,17,30,8.20
2013,09,28,17,31,10.30
2013,09,28,17,32,14.30
2013,09,28,17,33,12.30
2013,09,28,17,34,9.70
2013,09,28,17,35,7.00
2013,09,28,17,36,12.10
2013,09,28,17,37,12.10
2013,09,28,17,38,12.70
2013,09,28,17,39,12.70
2013,09,28,17,40,14.10
2013,09,28,17,41,9.90
2013,09,28,17,42,11.00
2013,09,28,17,43,7.60
2013,09,28,17,44,9.70
2013,09,28,17,45,15.40
2013,09,28,17,46,10.90
2013,09,28,17,47,10.20
2013,09,28,17,48,9.30
2013,09,28,17,49,12.30
2013,09,28,17,50,10.60
2013,09,28,17,51,9.40
2013,09,28,17,52,10.60
2013,09,28,17,53,12.70
2013,09,28,17,54,12.20
2013,09,28,17,55,9.50
2013,09,28,17,56,7.70
2013,09,28,17,57,8.40
2013,09,28,17,58,8.30
2013,09,28,17,59,9.00
2013,09,28,18,00,9.40